Tracking 23885 objects as of 28-Nov-2021
HD Live streaming from Space Station
objects crossing your sky now

CZ-4C DEB

Track CZ-4C DEB now!
10-day predictions


NORAD ID: 44598
Int'l Code: 2013-065H
Perigee: 998.8 km
Apogee: 1,207.8 km
Inclination: 100.5 °
Period: 107.2 minutes
Semi major axis: 7474 km
RCS: Unknown
Launch date: November 20, 2013
Source: People's Republic of China (PRC)
Launch site: Taiyaun Space Center, China (TSC)

Note: This is SATELLITE DEBRIS
aabbcc
Your satellite tracking list
Your tracking list is empty




NASA's NSSDC Master Catalog

Two Line Element Set (TLE):
1 44598U 13065H   21331.46928965 -.00000055  00000-0 -10590-4 0  9995
2 44598 100.4783 195.4915 0139832 226.9256 132.0099 13.43528267310534
Source of the keplerian elements: AFSPC